OBJECT F, 60750

Orbit data source: Space-Track

You're viewing an Uncataloged Satellite

Recently launched and/or uncataloged satellites may have evolving metadata. Metadata may include but not limited to: Owner, Maufacturer, Bus, Motor, and Mission.

OBJECT F, 60750 is a satellite owned by Xiamen Tianwei (CN) in SSO that was launched on Thu, 29 Aug 2024 UTC via a GUSHENXING 1 launch vehicle from the Yellow Sea Launch Area, China (YSLA). Unknown objects in Earth's orbit typically refer to objects detected orbiting the Earth but have not yet been identified or cataloged. These objects could be anything from previously untracked satellites, spent rocket stages, debris from satellite collisions, or even natural meteoroids temporarily captured by Earth's gravity.

Loading next visibility...
OBJECT F details
Identifier
60750, 2024-153F
Orbit
SSO
Last TLE update8 hours ago
Origin
Flag of CNXiamen Tianwei (CN / PRC)
ManufacturerHangsheng
MissionOperational spacecraft
Bus & MotorTFG, Unknown motor
Mass~50 kg wet, ~50 kg dry
Launch date (UTC)
2024-08-29 (5 months ago)
Launch vehicle
GUSHENXING 1
Launch site
Yellow Sea Launch Area, China (YSLA)
Object typeUnknown
Shape & HBRUnknown
Radar Cross SectionMedium (>0.1 m² and <1 m²)

Expand to show TLE details & history

TLE from 8 hours ago
0 OBJECT F
1 60750U 24153F   25014.89411478  .00019852  00000-0  98727-3 0  9998
2 60750  97.6189 138.4004 0015097 172.2550 187.8919 15.17566154 20987
Epoch: 2025-01-14T21:27Z
Definitive object data (Epoch: 2025-01-14T21:27:31.516Z)
Latitude-0.00008°
Longitude61.92483°
Altitude526.588 km
Speed7.594 km/s
True Right ascension09h 13m 36s
True Declination0° 00' 00"
Sunlit
Object was in full shadow at TLE epoch
Visualization TLE readout
Latitude20.05513°
Longitude59.47658°
Altitude524.901 km
Speed7.597 km/s
Apparent Right ascension12h 19m 33s
Apparent Declination-20° 44' 53"
Sunlit
Object is in full shadow
Visualization observer readout
Local Sidereal Time06:06:48
Azimuth104.319° ESE
Elevation-15.499°
Doppler factor1
Orbital elements
Apogee altitude520.577 km
Perigee altitude499.778 km
Semi-major axis6,888.314 km
Eccentricity0.0015097
Inclination97.6189°
RAAN138.4004°
Arg. of periapsis172.255°
True anomaly187.86819°
Mean anomaly187.8919°
Eccentric anomaly187.88004°
Mean motion3.79642 °/min
BSTAR0.00098727
Orbital period94.83 mins
Loading maneuver chart data...
Loading historical data...
Loading historical data...
Loading historical data...
Loading historical data...
Loading historical data...
Loading historical data...
Loading historical data...

OBJECT F Visibility forecast

Observer location: undefined°, undefined

Span
Click to sort rows by Start time (UTC) header in descending order
Start Az.
Max El. time (UTC)
Max El. Az.
Max El.
End time (UTC)
End Az.
4 mins2025-01-15 07:06:35.360Z104.091° ESE2025-01-15 07:08:35.360Z71.268° E15.223°2025-01-15 07:10:35.360Z35.902° NE
5 mins2025-01-15 08:40:35.360Z212.014° SW2025-01-15 08:42:35.360Z265.214° W28.533°2025-01-15 08:45:35.360Z325.464° NNW
4 mins2025-01-15 20:12:35.360Z64.347° ENE2025-01-15 20:13:35.360Z85.622° E19.559°2025-01-15 20:16:35.360Z143.759° SSE
4 mins2025-01-15 21:46:35.360Z320.415° NNW2025-01-15 21:47:35.360Z297.977° NW20.654°2025-01-15 21:50:35.360Z240.041° WSW
|